DELTA 1 DEB, 7073

Orbit data source: Space-Track

DELTA 1 DEB, 7073 is space debris in SSO originally from a launch on Tue, 06 Nov 1973 UTC launched from the Air Force Western Test Range (AFWTR). Debris objects in space refer to the collection of defunct objects orbiting the Earth. Examples of debris include non-operational satellites, rocket bodies, and fragments generated from explosions, collisions, or faulty payload assembly.

Loading next visibility...
Identifier
7073, 1973-086BR
Orbit
SSO
Country
Flag of USUS
Related business
Manufacturer
Unknown
Mission
Spacecraft
Bus & Motor
Unknown
Mass
Unknown
Launch date (UTC)
1973-11-06 (52 years ago)
Launch vehicle
Unknown
Launch site
Air Force Western Test Range (AFWTR)
Object type
Payload
Rocket body
Debris
Shape & HBR
Unknown shape, 0.2 m
Radar Cross Section
Medium (>0.1 m² and <1 m²)

Expand to show TLE details & history
Last TLE update: 11 hours ago

TLE from 11 hours ago
0 DELTA 1 DEB
1 07073U 73086BR  25292.83589698 -.00000016  00000-0  25415-3 0  9995
2 07073 102.4816 253.0681 0064550  83.9437 306.0046 12.28470252329365
Epoch: 2025-10-19T20:03Z
TLE epoch observation values (Epoch: 2025-10-19T20:03:41.499Z)
Latitude
28.63262°
Longitude
-83.3089°
Altitude
1,529.165 km
Speed
7.117 km/s
True Right ascension
16h 24m 38s
True Declination
28° 30' 08"
Sunlit
Object was in daylight at epoch
Visualization orbit readout
Latitude
Unknown
Longitude
Unknown
Altitude
Unknown
Speed
Unknown
Apparent Right ascension
Unknown
Apparent Declination
Unknown
Sunlit
N/A
Visualization observer readout
Local Sidereal Time
01:36:50
Azimuth
Unknown
Elevation
Unknown
Doppler factor
Unknown
Orbital elements
Apogee altitude
1,604.678 km
Perigee altitude
1,502.281 km
Semi-major axis
7,931.617 km
Eccentricity
0.00646
Inclination
102.4816°
RAAN
253.0681°
Arg. of periapsis
83.9437°
True anomaly
305.40337°
Mean anomaly
306.0046°
Eccentric anomaly
305.70427°
Mean motion
3.07256 °/min
Orbital period
117.17 mins
BSTAR
0.00025415
Loading maneuver chart data...
Computing Atmospheric mass density...
Loading historical data...
Loading historical data...
Loading historical data...
Loading historical data...
Loading historical data...
Loading historical data...
Loading historical data...

Documentation

Showing up to 5 results
|